STARLINK-3987, 52699

Orbit data source: Space-Track

STARLINK-3987, 52699 is a payload satellite owned by SpaceX/Seattle (US) in LEO that was launched on Wed, 18 May 2022 UTC via an FALCON 9 launch vehicle from the Air Force Eastern Test Range (AFETR). Payload-class satellites include a variety of spacecraft equipped with specific instruments for various scientific and technological missions. These include communications satellites like Starlink; space stations such as the ISS; scientific satellites like the Hubble; Earth observation satellites from companies like Planet Labs, Umbra, and HawkEye 360; GPS; miniature CubeSats for education and research; and military/defense satellites.

Loading next visibility...
Identifier
52699, 2022-053AV
Orbit
LEO
Country
Flag of USUS
Related business
Manufacturer
SpaceX/Seattle
Mission
Operational Commercial Communications
Bus & Motor
STARLINK, Unknown motor
Mass
297 kg wet, ~275 kg dry
Launch date (UTC)
2022-05-18 (4 years ago)
Launch vehicle
FALCON 9
Launch site
Air Force Eastern Test Range (AFETR)
Object type
Payload
Rocket body
Debris
Shape & HBR
Box + 1 Pan, 10.1 m
Radar Cross Section
13.562 m², Large (>1 m²)

Expand to show TLE details & history
Last TLE update: 2 days ago

TLE from 2 days ago
0 STARLINK-3987
1 52699U 22053AV  26171.44371731  .00012947  00000-0  82765-3 0  9994
2 52699  53.1616  37.7533 0001508  75.3950 284.7209 15.08945210226755
Epoch: 2026-06-20T10:38Z
TLE epoch observation values (Epoch: 2026-06-20T10:38:57.175Z)
Latitude
Longitude
-30.64319°
Altitude
540.048 km
Speed
7.594 km/s
True Right ascension
02h 31m 00s
True Declination
0° 00' 00"
Sunlit
Object was in daylight at epoch
Visualization orbit readout
Latitude
Unknown
Longitude
Unknown
Altitude
Unknown
Speed
Unknown
Apparent Right ascension
Unknown
Apparent Declination
Unknown
Sunlit
N/A
Visualization observer readout
Local Sidereal Time
21:26:36
Azimuth
Unknown
Elevation
Unknown
Doppler factor
Unknown
Orbital elements
Apogee altitude
540.719 km
Perigee altitude
538.632 km
Semi-major axis
6,917.813 km
Eccentricity
0.00015
Inclination
53.1616°
RAAN
37.7533°
Arg. of periapsis
75.395°
True anomaly
284.70419°
Mean anomaly
284.7209°
Eccentric anomaly
284.71254°
Mean motion
3.77216 °/min
Orbital period
95.44 mins
BSTAR
0.00082765
Loading maneuver chart data...
Computing Atmospheric mass density...
Loading historical data...
Loading historical data...
Loading historical data...
Loading historical data...
Loading historical data...
Loading historical data...
Loading historical data...

Documentation

Showing up to 5 results
|